Location: Perugia
(43.1330°N, 12.3670°E)
Time: 05:44:39
(UTC+01:00)

ISS - Pass Details

Date: 27 January 2021
Orbit: 417 x 422 km, 51.6° (Epoch: 08 March)

Event Time Altitude Azimuth Distance (km) Brightness Sun altitude
Rises 19:36:59 0° 301° (WNW) 2,375 0.9 -25.6°
Reaches altitude 10° 19:39:25 10° 318° (NW) 1,510 -0.5 -26.1°
Enters shadow 19:40:06 14° 327° (NNW) 1,307 -0.9 -26.2°
